| time (UTC) | temp F | wind direction | speed MPH | gust MPH | rain 1hr in | rain 24hr in | rain mn in | humidity % | barometer mb |
| 20260508162906 | 78 | 348 | 1.0 | 5.0 | 0.00 | 0.00 | 0.00 | 23 | 1010.5 |
| 20260508162406 | 79 | 279 | 2.0 | 5.0 | 0.00 | 0.00 | 0.00 | 23 | 1010.7 |
| 20260508161909 | 78 | 151 | 1.0 | 4.0 | 0.00 | 0.00 | 0.00 | 23 | 1010.5 |
| 20260508161410 | 78 | 152 | 1.0 | 5.0 | 0.00 | 0.00 | 0.00 | 23 | 1010.5 |
| 20260508160910 | 77 | 158 | 2.0 | 5.0 | 0.00 | 0.00 | 0.00 | 24 | 1010.5 |
| 20260508160409 | 77 | 192 | 2.0 | 5.0 | 0.00 | 0.00 | 0.00 | 25 | 1010.5 |
| 20260508155909 | 77 | 203 | 3.0 | 4.0 | 0.00 | 0.00 | 0.00 | 25 | 1010.5 |
| 20260508155408 | 77 | 145 | 2.0 | 5.0 | 0.00 | 0.00 | 0.00 | 25 | 1010.4 |
| 20260508155127 | 76 | 171 | 2.0 | 5.0 | 0.00 | 0.00 | 0.00 | 25 | 1010.4 |
| 20260508154857 | 76 | 207 | 2.0 | 4.0 | 0.00 | 0.00 | 0.00 | 25 | 1010.5 |
| 20260508153909 | 76 | 186 | 2.0 | 4.0 | 0.00 | 0.00 | 0.00 | 25 | 1010.5 |
| 20260508153408 | 76 | 149 | 2.0 | 4.0 | 0.00 | 0.00 | 0.00 | 25 | 1010.5 |
| 20260508152908 | 75 | 152 | 2.0 | 4.0 | 0.00 | 0.00 | 0.00 | 25 | 1010.4 |
| 20260508152408 | 75 | 173 | 1.0 | 5.0 | 0.00 | 0.00 | 0.00 | 26 | 1010.4 |
| 20260508151907 | 75 | 199 | 3.0 | 5.0 | 0.00 | 0.00 | 0.00 | 25 | 1010.4 |
| 20260508151408 | 74 | 157 | 2.0 | 4.0 | 0.00 | 0.00 | 0.00 | 27 | 1010.5 |
| 20260508150907 | 74 | 164 | 1.0 | 3.0 | 0.00 | 0.00 | 0.00 | 26 | 1010.4 |
| 20260508150407 | 74 | 159 | 0.0 | 4.0 | 0.00 | 0.00 | 0.00 | 26 | 1010.5 |
| 20260508145904 | 74 | 228 | 2.0 | 4.0 | 0.00 | 0.00 | 0.00 | 26 | 1010.5 |
| 20260508145407 | 74 | 190 | 2.0 | 4.0 | 0.00 | 0.00 | 0.00 | 26 | 1010.5 |
| 20260508144907 | 75 | 100 | 0.0 | 0.0 | 0.00 | 0.00 | 0.00 | 27 | 1010.5 |
| 20260508144407 | 74 | 162 | 0.0 | 2.0 | 0.00 | 0.00 | 0.00 | 28 | 1010.5 |
| 20260508143907 | 73 | 180 | 0.0 | 2.0 | 0.00 | 0.00 | 0.00 | 28 | 1010.5 |
| 20260508143407 | 73 | 162 | 0.0 | 3.0 | 0.00 | 0.00 | 0.00 | 29 | 1010.4 |
| 20260508142906 | 72 | 162 | 1.0 | 3.0 | 0.00 | 0.00 | 0.00 | 29 | 1010.4 |
| 20260508142403 | 71 | 151 | 0.0 | 2.0 | 0.00 | 0.00 | 0.00 | 30 | 1010.4 |
| 20260508142126 | 70 | 173 | 0.0 | 2.0 | 0.00 | 0.00 | 0.00 | 32 | 1010.4 |
| 20260508141403 | 70 | 90 | 0.0 | 2.0 | 0.00 | 0.00 | 0.00 | 32 | 1010.4 |
| 20260508141132 | 69 | 73 | 0.0 | 2.0 | 0.00 | 0.00 | 0.00 | 33 | 1010.4 |
| 20260508140407 | 68 | 86 | 0.0 | 1.0 | 0.00 | 0.00 | 0.00 | 34 | 1010.4 |
| 20260508135905 | 67 | 89 | 0.0 | 2.0 | 0.00 | 0.00 | 0.00 | 37 | 1010.4 |
| 20260508135405 | 67 | 38 | 1.0 | 2.0 | 0.00 | 0.00 | 0.00 | 38 | 1010.3 |
| 20260508134906 | 66 | 41 | 0.0 | 3.0 | 0.00 | 0.00 | 0.00 | 41 | 1010.3 |
| 20260508134406 | 65 | 34 | 0.0 | 3.0 | 0.00 | 0.00 | 0.00 | 41 | 1010.3 |
| 20260508133906 | 64 | 4 | 0.0 | 1.0 | 0.00 | 0.00 | 0.00 | 43 | 1010.2 |
| 20260508133405 | 62 | 30 | 0.0 | 1.0 | 0.00 | 0.00 | 0.00 | 45 | 1010.2 |
| 20260508132905 | 62 | 17 | 0.0 | 3.0 | 0.00 | 0.00 | 0.00 | 46 | 1010.2 |
| 20260508132405 | 61 | 4 | 1.0 | 3.0 | 0.00 | 0.00 | 0.00 | 45 | 1010.2 |
| 20260508131905 | 60 | 16 | 0.0 | 2.0 | 0.00 | 0.00 | 0.00 | 47 | 1010.1 |
| 20260508131406 | 60 | 87 | 0.0 | 0.0 | 0.00 | 0.00 | 0.00 | 47 | 1010.1 |
| 20260508130904 | 59 | 117 | 0.0 | 0.0 | 0.00 | 0.00 | 0.00 | 48 | 1010.0 |
| 20260508130404 | 59 | 110 | 0.0 | 0.0 | 0.00 | 0.00 | 0.00 | 47 | 1010.0 |
| 20260508125904 | 59 | 127 | 0.0 | 0.0 | 0.00 | 0.00 | 0.00 | 50 | 1009.8 |
| 20260508125623 | 59 | 127 | 0.0 | 0.0 | 0.00 | 0.00 | 0.00 | 48 | 1009.6 |
| 20260508124901 | 60 | 7 | 0.0 | 0.0 | 0.00 | 0.00 | 0.00 | 48 | 1009.5 |
| 20260508124404 | 60 | 7 | 0.0 | 0.0 | 0.00 | 0.00 | 0.00 | 49 | 1009.5 |
| 20260508123904 | 61 | 7 | 0.0 | 0.0 | 0.00 | 0.00 | 0.00 | 44 | 1009.4 |
| 20260508123404 | 62 | 358 | 0.0 | 0.0 | 0.00 | 0.00 | 0.00 | 44 | 1009.4 |
| 20260508122904 | 62 | 358 | 0.0 | 3.0 | 0.00 | 0.00 | 0.00 | 42 | 1009.4 |
| 20260508122404 | 61 | 13 | 0.0 | 3.0 | 0.00 | 0.00 | 0.00 | 44 | 1009.1 |
| 20260508121900 | 60 | 344 | 0.0 | 3.0 | 0.00 | 0.00 | 0.00 | 46 | 1009.1 |
| 20260508121400 | 61 | 353 | 0.0 | 3.0 | 0.00 | 0.00 | 0.00 | 45 | 1009.1 |
| 20260508120900 | 62 | 357 | 0.0 | 0.0 | 0.00 | 0.00 | 0.00 | 42 | 1009.0 |
| 20260508120401 | 63 | 30 | 0.0 | 1.0 | 0.00 | 0.00 | 0.00 | 41 | 1009.1 |
| 20260508115904 | 63 | 30 | 0.0 | 3.0 | 0.00 | 0.00 | 0.00 | 39 | 1009.1 |
| 20260508115403 | 64 | 34 | 0.0 | 3.0 | 0.00 | 0.00 | 0.00 | 39 | 1009.1 |
| 20260508114903 | 64 | 38 | 0.0 | 3.0 | 0.00 | 0.00 | 0.00 | 38 | 1009.0 |
| 20260508114627 | 63 | 41 | 0.0 | 3.0 | 0.00 | 0.00 | 0.00 | 40 | 1009.1 |
| 20260508113859 | 63 | 58 | 0.0 | 4.0 | 0.00 | 0.00 | 0.00 | 39 | 1008.9 |
| 20260508113400 | 63 | 41 | 2.0 | 4.0 | 0.00 | 0.00 | 0.00 | 40 | 1009.0 |
| 20260508112859 | 63 | 27 | 0.0 | 0.0 | 0.00 | 0.00 | 0.00 | 40 | 1008.9 |
| 20260508112359 | 63 | 17 | 0.0 | 0.0 | 0.00 | 0.00 | 0.00 | 40 | 1009.0 |
| 20260508111902 | 63 | 10 | 0.0 | 0.0 | 0.00 | 0.00 | 0.00 | 41 | 1008.9 |
| 20260508111402 | 64 | 28 | 0.0 | 2.0 | 0.00 | 0.00 | 0.00 | 38 | 1008.9 |
| 20260508110902 | 64 | 49 | 0.0 | 3.0 | 0.00 | 0.00 | 0.00 | 38 | 1008.9 |
| 20260508110402 | 63 | 31 | 1.0 | 3.0 | 0.00 | 0.00 | 0.00 | 39 | 1008.8 |
| 20260508105857 | 63 | 37 | 0.0 | 3.0 | 0.00 | 0.00 | 0.00 | 40 | 1008.9 |
| 20260508105358 | 63 | 31 | 0.0 | 3.0 | 0.00 | 0.00 | 0.00 | 41 | 1008.9 |
| 20260508104858 | 63 | 35 | 0.0 | 1.0 | 0.00 | 0.00 | 0.00 | 38 | 1008.9 |
| 20260508104358 | 64 | 39 | 0.0 | 1.0 | 0.00 | 0.00 | 0.00 | 39 | 1008.9 |
| 20260508103859 | 64 | 39 | 0.0 | 1.0 | 0.00 | 0.00 | 0.00 | 38 | 1008.8 |
| 20260508103401 | 64 | 66 | 0.0 | 1.0 | 0.00 | 0.00 | 0.00 | 38 | 1008.8 |
| 20260508102901 | 64 | 41 | 0.0 | 1.0 | 0.00 | 0.00 | 0.00 | 38 | 1008.8 |
| 20260508102627 | 64 | 28 | 0.0 | 0.0 | 0.00 | 0.00 | 0.00 | 39 | 1008.8 |
| 20260508101901 | 64 | 37 | 0.0 | 1.0 | 0.00 | 0.00 | 0.00 | 38 | 1008.8 |
| 20260508101401 | 64 | 37 | 0.0 | 1.0 | 0.00 | 0.00 | 0.00 | 38 | 1008.9 |
| 20260508100901 | 64 | 34 | 0.0 | 3.0 | 0.00 | 0.00 | 0.00 | 37 | 1008.9 |
| 20260508100401 | 65 | 32 | 2.0 | 3.0 | 0.00 | 0.00 | 0.00 | 36 | 1008.8 |
| 20260508095901 | 65 | 38 | 0.0 | 3.0 | 0.00 | 0.00 | 0.00 | 37 | 1008.8 |
| 20260508095400 | 65 | 45 | 0.0 | 3.0 | 0.00 | 0.00 | 0.00 | 36 | 1008.7 |
| 20260508094900 | 64 | 41 | 0.0 | 1.0 | 0.00 | 0.00 | 0.00 | 37 | 1008.7 |
| 20260508094849 | 64 | 54 | 0.0 | 0.0 | 0.00 | 0.00 | 0.00 | 37 | 1008.7 |
| 20260508094344 | 65 | 54 | 0.0 | 0.0 | 0.00 | 0.00 | 0.00 | 37 | 1008.6 |
| 20260508093618 | 65 | 54 | 0.0 | 1.0 | 0.00 | 0.00 | 0.00 | 36 | 1008.7 |
| 20260508092900 | 66 | 54 | 0.0 | 3.0 | 0.00 | 0.00 | 0.00 | 35 | 1008.7 |
| 20260508092400 | 66 | 72 | 1.0 | 3.0 | 0.00 | 0.00 | 0.00 | 34 | 1008.8 |
| 20260508092132 | 66 | 38 | 0.0 | 3.0 | 0.00 | 0.00 | 0.00 | 34 | 1008.9 |
| 20260508091356 | 66 | 39 | 0.0 | 3.0 | 0.00 | 0.00 | 0.00 | 35 | 1008.9 |
| 20260508090900 | 66 | 34 | 0.0 | 3.0 | 0.00 | 0.00 | 0.00 | 35 | 1008.9 |
| 20260508090359 | 66 | 42 | 2.0 | 3.0 | 0.00 | 0.00 | 0.00 | 35 | 1008.9 |
| 20260508085859 | 66 | 30 | 0.0 | 2.0 | 0.00 | 0.00 | 0.00 | 35 | 1008.8 |
| 20260508085359 | 66 | 49 | 0.0 | 3.0 | 0.00 | 0.00 | 0.00 | 35 | 1008.9 |
| 20260508084859 | 66 | 38 | 1.0 | 3.0 | 0.00 | 0.00 | 0.00 | 35 | 1008.9 |
| 20260508084358 | 66 | 42 | 1.0 | 3.0 | 0.00 | 0.00 | 0.00 | 35 | 1008.9 |
| 20260508083859 | 66 | 42 | 0.0 | 0.0 | 0.00 | 0.00 | 0.00 | 35 | 1009.0 |
| 20260508083359 | 66 | 48 | 0.0 | 0.0 | 0.00 | 0.00 | 0.00 | 34 | 1009.0 |
| 20260508082858 | 66 | 63 | 0.0 | 3.0 | 0.00 | 0.00 | 0.00 | 34 | 1009.0 |
| 20260508082622 | 66 | 32 | 1.0 | 3.0 | 0.00 | 0.00 | 0.00 | 35 | 1009.1 |
| 20260508081858 | 65 | 38 | 0.0 | 3.0 | 0.00 | 0.00 | 0.00 | 36 | 1009.1 |
| 20260508081358 | 65 | 37 | 0.0 | 3.0 | 0.00 | 0.00 | 0.00 | 37 | 1009.1 |
| 20260508080858 | 65 | 30 | 0.0 | 0.0 | 0.00 | 0.00 | 0.00 | 39 | 1009.2 |
| 20260508080619 | 65 | 140 | 0.0 | 0.0 | 0.00 | 0.00 | 0.00 | 36 | 1009.4 |
| 20260508075858 | 65 | 193 | 0.0 | 0.0 | 0.00 | 0.00 | 0.00 | 39 | 1009.4 |
| 20260508075358 | 65 | 193 | 0.0 | 0.0 | 0.00 | 0.00 | 0.00 | 36 | 1009.4 |
| 20260508074857 | 67 | 193 | 0.0 | 2.0 | 0.00 | 0.00 | 0.00 | 33 | 1009.2 |
| 20260508074357 | 67 | 193 | 0.0 | 3.0 | 0.00 | 0.00 | 0.00 | 32 | 1009.4 |
| 20260508073857 | 67 | 66 | 0.0 | 3.0 | 0.00 | 0.00 | 0.00 | 32 | 1009.5 |
| 20260508073357 | 66 | 48 | 0.0 | 1.0 | 0.00 | 0.00 | 0.00 | 36 | 1009.5 |
| 20260508072857 | 66 | 103 | 0.0 | 0.0 | 0.00 | 0.00 | 0.00 | 35 | 1009.5 |
| 20260508072357 | 66 | 83 | 0.0 | 0.0 | 0.00 | 0.00 | 0.00 | 35 | 1009.6 |
| 20260508072117 | 65 | 58 | 0.0 | 0.0 | 0.00 | 0.00 | 0.00 | 37 | 1009.4 |
| 20260508071353 | 65 | 168 | 0.0 | 0.0 | 0.00 | 0.00 | 0.00 | 38 | 1009.5 |
| 20260508071113 | 66 | 168 | 0.0 | 3.0 | 0.00 | 0.00 | 0.00 | 35 | 1009.6 |
| 20260508070354 | 67 | 154 | 0.0 | 3.0 | 0.00 | 0.00 | 0.00 | 36 | 1009.6 |
| 20260508070117 | 68 | 28 | 0.0 | 1.0 | 0.00 | 0.00 | 0.00 | 33 | 1009.6 |
| 20260508065357 | 67 | 20 | 0.0 | 1.0 | 0.00 | 0.00 | 0.00 | 35 | 1009.6 |
| 20260508065119 | 67 | 31 | 0.0 | 4.0 | 0.00 | 0.00 | 0.00 | 35 | 1009.5 |
| 20260508064356 | 68 | 41 | 2.0 | 4.0 | 0.00 | 0.00 | 0.00 | 33 | 1009.6 |
| 20260508063857 | 67 | 45 | 2.0 | 4.0 | 0.00 | 0.00 | 0.00 | 33 | 1009.7 |
| 20260508063356 | 67 | 41 | 2.0 | 3.0 | 0.00 | 0.00 | 0.00 | 35 | 1009.8 |
| 20260508062856 | 67 | 27 | 2.0 | 3.0 | 0.00 | 0.00 | 0.00 | 36 | 1009.8 |
| 20260508062356 | 66 | 37 | 0.0 | 0.0 | 0.00 | 0.00 | 0.00 | 37 | 1009.9 |
| 20260508062123 | 67 | 38 | 0.0 | 0.0 | 0.00 | 0.00 | 0.00 | 39 | 1009.8 |
| 20260508061617 | 67 | 38 | 0.0 | 0.0 | 0.00 | 0.00 | 0.00 | 39 | 1009.9 |
| 20260508060856 | 67 | 38 | 0.0 | 3.0 | 0.00 | 0.00 | 0.00 | 35 | 1009.8 |
| 20260508060355 | 67 | 38 | 0.0 | 3.0 | 0.00 | 0.00 | 0.00 | 35 | 1009.8 |
| 20260508060123 | 67 | 41 | 0.0 | 0.0 | 0.00 | 0.00 | 0.00 | 38 | 1009.8 |
| 20260508055355 | 67 | 355 | 0.0 | 0.0 | 0.00 | 0.00 | 0.00 | 35 | 1009.8 |
| 20260508054855 | 68 | 355 | 0.0 | 0.0 | 0.00 | 0.00 | 0.00 | 34 | 1009.8 |
| 20260508054355 | 68 | 10 | 0.0 | 0.0 | 0.00 | 0.00 | 0.00 | 36 | 1009.8 |
| 20260508054119 | 69 | 18 | 0.0 | 3.0 | 0.00 | 0.00 | 0.00 | 33 | 1009.8 |
| 20260508053354 | 69 | 21 | 2.0 | 3.0 | 0.00 | 0.00 | 0.00 | 30 | 1009.8 |
| 20260508052854 | 69 | 34 | 0.0 | 2.0 | 0.00 | 0.00 | 0.00 | 31 | 1009.7 |
| 20260508052355 | 69 | 30 | 0.0 | 2.0 | 0.00 | 0.00 | 0.00 | 32 | 1009.8 |
| 20260508051854 | 69 | 28 | 0.0 | 0.0 | 0.00 | 0.00 | 0.00 | 32 | 1009.7 |
| 20260508051354 | 69 | 28 | 0.0 | 0.0 | 0.00 | 0.00 | 0.00 | 32 | 1009.8 |
| 20260508050853 | 69 | 1 | 0.0 | 0.0 | 0.00 | 0.00 | 0.00 | 33 | 1009.8 |
| 20260508050614 | 69 | 13 | 0.0 | 1.0 | 0.00 | 0.00 | 0.00 | 32 | 1009.7 |
| 20260508045853 | 68 | 10 | 0.0 | 1.0 | 0.00 | 0.00 | 0.00 | 32 | 1009.7 |
| 20260508045838 | 68 | 20 | 0.0 | 0.0 | 0.00 | 0.00 | 0.00 | 34 | 1009.7 |
| 20260508044853 | 68 | 338 | 0.0 | 0.0 | 0.00 | 0.00 | 0.00 | 34 | 1009.6 |
| 20260508044354 | 68 | 338 | 0.0 | 0.0 | 0.00 | 0.00 | 0.00 | 35 | 1009.6 |
| 20260508043853 | 69 | 338 | 0.0 | 0.0 | 0.00 | 0.00 | 0.00 | 34 | 1009.5 |
| 20260508043353 | 69 | 102 | 0.0 | 0.0 | 0.00 | 0.00 | 0.00 | 32 | 1009.5 |
| 20260508042853 | 69 | 138 | 0.0 | 0.0 | 0.00 | 0.00 | 0.00 | 32 | 1009.5 |
| 20260508042353 | 69 | 68 | 0.0 | 0.0 | 0.00 | 0.00 | 0.00 | 34 | 1009.2 |
| 20260508041853 | 69 | 69 | 0.0 | 0.0 | 0.00 | 0.00 | 0.00 | 34 | 1009.2 |
| 20260508041610 | 70 | 69 | 0.0 | 0.0 | 0.00 | 0.00 | 0.00 | 32 | 1009.1 |
| 20260508040852 | 70 | 69 | 0.0 | 0.0 | 0.00 | 0.00 | 0.00 | 32 | 1009.1 |
| 20260508040352 | 71 | 69 | 0.0 | 0.0 | 0.00 | 0.00 | 0.00 | 29 | 1009.1 |
| 20260508035853 | 71 | 69 | 0.0 | 0.0 | 0.00 | 0.00 | 0.00 | 29 | 1009.0 |
| 20260508035352 | 71 | 66 | 0.0 | 0.0 | 0.00 | 0.00 | 0.00 | 29 | 1008.8 |
| 20260508034852 | 72 | 66 | 0.0 | 0.0 | 0.00 | 0.00 | 0.00 | 30 | 1008.7 |
| 20260508034610 | 72 | 66 | 0.0 | 0.0 | 0.00 | 0.00 | 0.00 | 27 | 1008.6 |
| 20260508033852 | 73 | 73 | 0.0 | 0.0 | 0.00 | 0.00 | 0.00 | 27 | 1008.5 |
| 20260508033352 | 74 | 125 | 0.0 | 0.0 | 0.00 | 0.00 | 0.00 | 24 | 1008.4 |
| 20260508032851 | 74 | 234 | 0.0 | 0.0 | 0.00 | 0.00 | 0.00 | 25 | 1008.3 |
| 20260508032351 | 74 | 234 | 0.0 | 0.0 | 0.00 | 0.00 | 0.00 | 24 | 1008.2 |
| 20260508031852 | 74 | 234 | 0.0 | 0.0 | 0.00 | 0.00 | 0.00 | 24 | 1008.2 |
| 20260508031613 | 75 | 234 | 0.0 | 0.0 | 0.00 | 0.00 | 0.00 | 24 | 1008.1 |
| 20260508030851 | 76 | 234 | 0.0 | 0.0 | 0.00 | 0.00 | 0.00 | 24 | 1008.1 |
| 20260508030351 | 76 | 234 | 0.0 | 0.0 | 0.00 | 0.00 | 0.00 | 21 | 1007.9 |
| 20260508030114 | 77 | 234 | 0.0 | 4.0 | 0.00 | 0.00 | 0.00 | 21 | 1007.8 |
| 20260508025351 | 77 | 282 | 0.0 | 10.0 | 0.00 | 0.00 | 0.00 | 20 | 1007.7 |
| 20260508025059 | 78 | 269 | 5.0 | 12.0 | 0.00 | 0.00 | 0.00 | 19 | 1007.3 |
| 20260508024944 | 78 | 279 | 4.0 | 10.0 | 0.00 | 0.00 | 0.00 | 20 | 1007.6 |
| 20260508023851 | 79 | 257 | 6.0 | 14.0 | 0.00 | 0.00 | 0.00 | 19 | 1007.3 |
| 20260508023351 | 79 | 265 | 6.0 | 15.0 | 0.00 | 0.00 | 0.00 | 18 | 1007.1 |
| 20260508022850 | 81 | 144 | 6.0 | 15.0 | 0.00 | 0.00 | 0.00 | 16 | 1006.9 |
| 20260508022350 | 81 | 257 | 2.0 | 11.0 | 0.00 | 0.00 | 0.00 | 14 | 1006.8 |
| 20260508021850 | 82 | 224 | 6.0 | 12.0 | 0.00 | 0.00 | 0.00 | 14 | 1006.6 |
| 20260508021349 | 82 | 282 | 8.0 | 12.0 | 0.00 | 0.00 | 0.00 | 13 | 1006.5 |
| 20260508021334 | 82 | 255 | 6.0 | 15.0 | 0.00 | 0.00 | 0.00 | 13 | 1006.3 |
| 20260508020349 | 82 | 312 | 7.0 | 15.0 | 0.00 | 0.00 | 0.00 | 13 | 1006.2 |
| 20260508020110 | 83 | 298 | 6.0 | 13.0 | 0.00 | 0.00 | 0.00 | 13 | 1006.1 |
| 20260508015349 | 83 | 299 | 5.0 | 15.0 | 0.00 | 0.00 | 0.00 | 13 | 1005.9 |
| 20260508014850 | 84 | 316 | 9.0 | 15.0 | 0.00 | 0.00 | 0.00 | 13 | 1006.0 |
| 20260508014349 | 84 | 283 | 8.0 | 16.0 | 0.00 | 0.00 | 0.00 | 13 | 1005.9 |
| 20260508013849 | 84 | 286 | 5.0 | 16.0 | 0.00 | 0.00 | 0.00 | 13 | 1005.8 |
| 20260508013349 | 85 | 350 | 8.0 | 15.0 | 0.00 | 0.00 | 0.00 | 13 | 1005.7 |
| 20260508012849 | 85 | 279 | 5.0 | 17.0 | 0.00 | 0.00 | 0.00 | 13 | 1005.8 |
| 20260508012348 | 85 | 276 | 7.0 | 17.0 | 0.00 | 0.00 | 0.00 | 13 | 1005.8 |
| 20260508011849 | 85 | 302 | 6.0 | 15.0 | 0.00 | 0.00 | 0.00 | 13 | 1005.8 |
| 20260508011349 | 85 | 257 | 5.0 | 18.0 | 0.00 | 0.00 | 0.00 | 13 | 1005.6 |
| 20260508010848 | 86 | 293 | 10.0 | 18.0 | 0.00 | 0.00 | 0.00 | 13 | 1005.5 |
| 20260508010348 | 87 | 275 | 6.0 | 12.0 | 0.00 | 0.00 | 0.00 | 13 | 1005.6 |
| 20260508005849 | 87 | 307 | 0.0 | 4.0 | 0.00 | 0.00 | 0.00 | 13 | 1005.5 |
| 20260508005348 | 87 | 298 | 2.0 | 6.0 | 0.00 | 0.00 | 0.00 | 12 | 1005.5 |
| 20260508004848 | 87 | 214 | 3.0 | 6.0 | 0.00 | 0.00 | 0.00 | 13 | 1005.3 |
| 20260508004347 | 87 | 281 | 1.0 | 4.0 | 0.00 | 0.00 | 0.00 | 12 | 1005.5 |
| 20260508003847 | 86 | 52 | 0.0 | 4.0 | 0.00 | 0.00 | 0.00 | 12 | 1005.3 |
| 20260508003347 | 86 | 72 | 1.0 | 6.0 | 0.00 | 0.00 | 0.00 | 12 | 1005.3 |
| 20260508002847 | 86 | 65 | 2.0 | 6.0 | 0.00 | 0.00 | 0.00 | 12 | 1005.3 |
| 20260508002347 | 87 | 309 | 1.0 | 5.0 | 0.00 | 0.00 | 0.00 | 12 | 1005.2 |
| 20260508001847 | 86 | 6 | 1.0 | 5.0 | 0.00 | 0.00 | 0.00 | 13 | 1005.3 |
| 20260508001347 | 87 | 69 | 2.0 | 9.0 | 0.00 | 0.00 | 0.00 | 12 | 1005.2 |
| 20260508000847 | 86 | 326 | 3.0 | 18.0 | 0.00 | 0.00 | 0.00 | 14 | 1005.2 |
| 20260508000615 | 86 | 285 | 2.0 | 18.0 | 0.00 | 0.00 | 0.00 | 13 | 1005.2 |
| 20260507235846 | 86 | 51 | 9.0 | 16.0 | 0.00 | 0.00 | 0.00 | 13 | 1005.2 |
| 20260507235347 | 86 | 14 | 4.0 | 7.0 | 0.00 | 0.00 | 0.00 | 13 | 1005.3 |
| 20260507235110 | 86 | 299 | 3.0 | 10.0 | 0.00 | 0.00 | 0.00 | 14 | 1005.5 |
| 20260507234349 | 85 | 341 | 3.0 | 10.0 | 0.00 | 0.00 | 0.00 | 13 | 1005.3 |
| 20260507233846 | 85 | 34 | 5.0 | 7.0 | 0.00 | 0.00 | 0.00 | 14 | 1005.3 |
| 20260507233610 | 85 | 355 | 3.0 | 9.0 | 0.00 | 0.00 | 0.00 | 13 | 1005.3 |
| 20260507232846 | 86 | 358 | 5.0 | 10.0 | 0.00 | 0.00 | 0.00 | 13 | 1005.3 |
| 20260507232346 | 87 | 303 | 3.0 | 10.0 | 0.00 | 0.00 | 0.00 | 13 | 1005.3 |
| 20260507231846 | 87 | 197 | 4.0 | 9.0 | 0.00 | 0.00 | 0.00 | 13 | 1005.3 |
| 20260507231605 | 87 | 241 | 3.0 | 6.0 | 0.00 | 0.00 | 0.00 | 13 | 1005.5 |
| 20260507230845 | 87 | 234 | 3.0 | 7.0 | 0.00 | 0.00 | 0.00 | 13 | 1005.3 |
| 20260507230832 | 87 | 353 | 4.0 | 10.0 | 0.00 | 0.00 | 0.00 | 13 | 1005.3 |
| 20260507225845 | 87 | 11 | 5.0 | 13.0 | 0.00 | 0.00 | 0.00 | 13 | 1005.3 |
| 20260507225345 | 89 | 235 | 7.0 | 13.0 | 0.00 | 0.00 | 0.00 | 12 | 1005.3 |
| 20260507224845 | 90 | 216 | 4.0 | 11.0 | 0.00 | 0.00 | 0.00 | 11 | 1005.3 |
| 20260507224346 | 90 | 185 | 4.0 | 9.0 | 0.00 | 0.00 | 0.00 | 11 | 1005.3 |
| 20260507223845 | 90 | 165 | 3.0 | 11.0 | 0.00 | 0.00 | 0.00 | 11 | 1005.5 |
| 20260507223345 | 90 | 175 | 3.0 | 14.0 | 0.00 | 0.00 | 0.00 | 12 | 1005.3 |
| 20260507222845 | 89 | 186 | 9.0 | 14.0 | 0.00 | 0.00 | 0.00 | 12 | 1005.5 |
| 20260507222344 | 88 | 171 | 4.0 | 14.0 | 0.00 | 0.00 | 0.00 | 12 | 1005.6 |
| 20260507221844 | 90 | 288 | 6.0 | 14.0 | 0.00 | 0.00 | 0.00 | 12 | 1005.7 |
| 20260507221345 | 90 | 226 | 4.0 | 10.0 | 0.00 | 0.00 | 0.00 | 12 | 1005.6 |
| 20260507220845 | 89 | 247 | 3.0 | 6.0 | 0.00 | 0.00 | 0.00 | 12 | 1005.7 |
| 20260507220344 | 89 | 224 | 3.0 | 15.0 | 0.00 | 0.00 | 0.00 | 11 | 1005.8 |
| 20260507215844 | 88 | 234 | 4.0 | 15.0 | 0.00 | 0.00 | 0.00 | 12 | 1005.9 |
| 20260507215344 | 88 | 219 | 3.0 | 10.0 | 0.00 | 0.00 | 0.00 | 12 | 1005.9 |
| 20260507214843 | 87 | 265 | 5.0 | 10.0 | 0.00 | 0.00 | 0.00 | 12 | 1006.1 |
| 20260507214613 | 87 | 69 | 0.0 | 7.0 | 0.00 | 0.00 | 0.00 | 11 | 1006.0 |
| 20260507213844 | 89 | 73 | 4.0 | 7.0 | 0.00 | 0.00 | 0.00 | 11 | 1006.2 |
| 20260507213344 | 90 | 197 | 3.0 | 7.0 | 0.00 | 0.00 | 0.00 | 11 | 1006.3 |
| 20260507212844 | 90 | 234 | 3.0 | 9.0 | 0.00 | 0.00 | 0.00 | 12 | 1006.5 |
| 20260507212343 | 89 | 254 | 3.0 | 9.0 | 0.00 | 0.00 | 0.00 | 12 | 1006.4 |
| 20260507211843 | 88 | 220 | 3.0 | 7.0 | 0.00 | 0.00 | 0.00 | 12 | 1006.5 |
| 20260507211604 | 88 | 303 | 3.0 | 6.0 | 0.00 | 0.00 | 0.00 | 13 | 1006.6 |
| 20260507211103 | 87 | 152 | 1.0 | 6.0 | 0.00 | 0.00 | 0.00 | 13 | 1006.6 |
| 20260507210343 | 86 | 133 | 3.0 | 6.0 | 0.00 | 0.00 | 0.00 | 13 | 1006.8 |
| 20260507205843 | 86 | 244 | 3.0 | 7.0 | 0.00 | 0.00 | 0.00 | 12 | 1006.9 |
| 20260507205343 | 86 | 255 | 2.0 | 10.0 | 0.00 | 0.00 | 0.00 | 13 | 1006.9 |
| 20260507204842 | 86 | 319 | 4.0 | 10.0 | 0.00 | 0.00 | 0.00 | 13 | 1006.9 |
| 20260507204342 | 87 | 312 | 0.0 | 7.0 | 0.00 | 0.00 | 0.00 | 12 | 1007.0 |
| 20260507203842 | 87 | 89 | 2.0 | 10.0 | 0.00 | 0.00 | 0.00 | 11 | 1006.9 |
| 20260507203342 | 88 | 171 | 3.0 | 10.0 | 0.00 | 0.00 | 0.00 | 11 | 1007.0 |
| 20260507203108 | 87 | 243 | 5.0 | 10.0 | 0.00 | 0.00 | 0.00 | 12 | 1007.0 |
| 20260507202342 | 88 | 241 | 5.0 | 10.0 | 0.00 | 0.00 | 0.00 | 11 | 1007.1 |
| 20260507201841 | 88 | 245 | 3.0 | 7.0 | 0.00 | 0.00 | 0.00 | 11 | 1007.2 |
| 20260507201342 | 87 | 168 | 0.0 | 6.0 | 0.00 | 0.00 | 0.00 | 12 | 1007.3 |
| 20260507200841 | 88 | 123 | 2.0 | 14.0 | 0.00 | 0.00 | 0.00 | 11 | 1007.2 |
| 20260507200341 | 88 | 147 | 7.0 | 14.0 | 0.00 | 0.00 | 0.00 | 11 | 1007.3 |
| 20260507195840 | 88 | 130 | 1.0 | 12.0 | 0.00 | 0.00 | 0.00 | 11 | 1007.2 |
| 20260507195341 | 88 | 130 | 6.0 | 12.0 | 0.00 | 0.00 | 0.00 | 11 | 1007.5 |
| 20260507195057 | 88 | 183 | 3.0 | 7.0 | 0.00 | 0.00 | 0.00 | 12 | 1007.5 |
| 20260507194558 | 88 | 62 | 1.0 | 6.0 | 0.00 | 0.00 | 0.00 | 11 | 1007.4 |
| 20260507193840 | 87 | 16 | 2.0 | 7.0 | 0.00 | 0.00 | 0.00 | 11 | 1007.5 |
| 20260507193341 | 87 | 223 | 4.0 | 7.0 | 0.00 | 0.00 | 0.00 | 12 | 1007.6 |
| 20260507192841 | 86 | 224 | 2.0 | 9.0 | 0.00 | 0.00 | 0.00 | 12 | 1007.7 |
| 20260507192341 | 87 | 182 | 4.0 | 9.0 | 0.00 | 0.00 | 0.00 | 12 | 1007.7 |
| 20260507191840 | 85 | 117 | 4.0 | 9.0 | 0.00 | 0.00 | 0.00 | 12 | 1007.7 |
| 20260507191340 | 86 | 79 | 4.0 | 9.0 | 0.00 | 0.00 | 0.00 | 12 | 1007.9 |
| 20260507190840 | 87 | 90 | 1.0 | 4.0 | 0.00 | 0.00 | 0.00 | 12 | 1007.8 |
| 20260507190340 | 87 | 128 | 2.0 | 6.0 | 0.00 | 0.00 | 0.00 | 11 | 1007.9 |
| 20260507185839 | 88 | 93 | 3.0 | 6.0 | 0.00 | 0.00 | 0.00 | 12 | 1007.9 |
| 20260507185339 | 87 | 127 | 3.0 | 6.0 | 0.00 | 0.00 | 0.00 | 12 | 1007.9 |
| 20260507184839 | 86 | 158 | 2.0 | 6.0 | 0.00 | 0.00 | 0.00 | 13 | 1008.1 |
| 20260507184339 | 86 | 289 | 3.0 | 6.0 | 0.00 | 0.00 | 0.00 | 14 | 1008.2 |
| 20260507183840 | 86 | 344 | 1.0 | 4.0 | 0.00 | 0.00 | 0.00 | 15 | 1008.3 |
| 20260507183339 | 86 | 147 | 0.0 | 3.0 | 0.00 | 0.00 | 0.00 | 14 | 1008.4 |
| 20260507182839 | 86 | 217 | 1.0 | 7.0 | 0.00 | 0.00 | 0.00 | 14 | 1008.4 |
| 20260507182338 | 85 | 271 | 2.0 | 7.0 | 0.00 | 0.00 | 0.00 | 15 | 1008.4 |
| 20260507181839 | 84 | 180 | 1.0 | 9.0 | 0.00 | 0.00 | 0.00 | 16 | 1008.6 |
| 20260507181339 | 84 | 309 | 4.0 | 9.0 | 0.00 | 0.00 | 0.00 | 16 | 1008.7 |
| 20260507181320 | 85 | 272 | 1.0 | 5.0 | 0.00 | 0.00 | 0.00 | 16 | 1008.8 |
| 20260507180339 | 84 | 190 | 2.0 | 5.0 | 0.00 | 0.00 | 0.00 | 16 | 1008.9 |
| 20260507175838 | 83 | 206 | 2.0 | 5.0 | 0.00 | 0.00 | 0.00 | 16 | 1008.9 |
| 20260507175338 | 83 | 182 | 1.0 | 5.0 | 0.00 | 0.00 | 0.00 | 17 | 1009.0 |
| 20260507174838 | 82 | 185 | 2.0 | 5.0 | 0.00 | 0.00 | 0.00 | 18 | 1009.0 |
| 20260507174338 | 81 | 355 | 1.0 | 6.0 | 0.00 | 0.00 | 0.00 | 19 | 1009.2 |
| 20260507173838 | 81 | 39 | 3.0 | 6.0 | 0.00 | 0.00 | 0.00 | 19 | 1009.2 |
| 20260507173338 | 81 | 234 | 2.0 | 5.0 | 0.00 | 0.00 | 0.00 | 20 | 1009.4 |
| 20260507173054 | 80 | 192 | 2.0 | 5.0 | 0.00 | 0.00 | 0.00 | 20 | 1009.5 |
| 20260507172338 | 80 | 285 | 2.0 | 5.0 | 0.00 | 0.00 | 0.00 | 21 | 1009.5 |
| 20260507171838 | 79 | 241 | 3.0 | 5.0 | 0.00 | 0.00 | 0.00 | 20 | 1009.5 |
| 20260507171336 | 79 | 319 | 2.0 | 5.0 | 0.00 | 0.00 | 0.00 | 21 | 1009.5 |
| 20260507170837 | 78 | 257 | 0.0 | 5.0 | 0.00 | 0.00 | 0.00 | 21 | 1009.5 |
| 20260507170337 | 79 | 248 | 3.0 | 5.0 | 0.00 | 0.00 | 0.00 | 20 | 1009.5 |
| 20260507165837 | 79 | 262 | 1.0 | 4.0 | 0.00 | 0.00 | 0.00 | 22 | 1009.6 |
| 20260507165337 | 79 | 241 | 2.0 | 4.0 | 0.00 | 0.00 | 0.00 | 22 | 1009.6 |
| 20260507165055 | 78 | 216 | 1.0 | 4.0 | 0.00 | 0.00 | 0.00 | 22 | 1009.6 |
| 20260507164336 | 77 | 248 | 1.0 | 4.0 | 0.00 | 0.00 | 0.00 | 23 | 1009.7 |
| 20260507163836 | 77 | 226 | 2.0 | 4.0 | 0.00 | 0.00 | 0.00 | 23 | 1009.7 |
| 20260507163553 | 77 | 274 | 1.0 | 7.0 | 0.00 | 0.00 | 0.00 | 23 | 1009.8 |